Chievres, Belgium

2:10 PM CEST on June 22, 2017 (GMT +0200)
Chievres Air Base

Weather History for EBCV - July, 2013

Change the Weather History Date:

Sunday, July 21, 2013

  Actual Average Record
Temperature  
Mean Temperature 72 °F -  
Max Temperature 89 °F 68 °F 89 °F (2013)
Min Temperature 55 °F 55 °F 48 °F (2008)
Cooling Degree Days 7    
Growing Degree Days 22 (Base 50)    
Moisture  
Dew Point 59 °F    
Average Humidity 71    
Maximum Humidity 100    
Minimum Humidity 31    
Precipitation  
Precipitation 0.00 in - - ()
Sea Level Pressure  
Sea Level Pressure 30.08 in    
Wind  
Wind Speed 4 mph ()    
Max Wind Speed 6 mph    
Max Gust Speed -    
Visibility 7.0 miles    
Events      
Averages and records for this station are not official NWS values.
T = Trace of Precipitation, MM = Missing Value Source: Averaged Metar Reports

Daily Weather History Graph

Daily Weather History Graph

Search for Another Location

Airport or City:

Trip Planner

Search our weather history database for the weather conditions in past years. The results will help you decide how hot, cold, wet, or windy it might be!

Date:

Astronomy

Jul. 21, 2013 Rise Set
Actual Time 5:56 AM CEST 9:44 PM CEST
Civil Twilight 5:15 AM CEST 10:26 PM CEST
Nautical Twilight 4:17 AM CEST 11:23 PM CEST
Astronomical Twilight 2:44 AM CEST 12:53 AM CEST
Moon 8:24 PM CEST (7/21) 4:26 AM CEST (7/21)
Length of Visible Light 17h 10m
Length of Day
15h 47m
Waxing Gibbous, 97% of the Moon is Illuminated
Jul 21
Waxing Gibbous
Jul 22
Full
Jul 29
Last Quarter
Aug 6
New
Aug 14
First Quarter

Hourly Weather History & Observations

Time (CEST) Temp. Heat Index Dew Point Humidity Pressure Visibility Wind Dir Wind Speed Gust Speed Precip Events Conditions
12:25 AM 59.0 °F - 57.2 °F 94% 30.12 in 6.2 mi NE 4.6 mph - N/A   Unknown
1:25 AM 59.0 °F - 57.2 °F 94% 30.12 in 6.2 mi NE 5.8 mph - N/A   Unknown
2:00 AM 58 °F - 56 °F 90% 30.13 in 6 mi NE 4.5 mph - -  
2:25 AM 59.0 °F - 55.4 °F 88% 30.12 in 5.6 mi NE 4.6 mph - N/A   Unknown
3:17 AM 57.2 °F - 55.4 °F 94% 30.09 in 4.3 mi NNE 4.6 mph - N/A   Unknown
3:25 AM 57.2 °F - 55.4 °F 94% 30.09 in 4.3 mi NNE 5.8 mph - N/A   Unknown
3:56 AM 59.0 °F - 55.4 °F 88% 30.09 in 5.6 mi Variable 2.3 mph - N/A   Unknown
4:25 AM 57.2 °F - 55.4 °F 94% 30.09 in 4.3 mi Variable 2.3 mph - N/A   Unknown
4:26 AM 57.2 °F - 55.4 °F 94% 30.09 in 4.3 mi Variable 2.3 mph - N/A   Unknown
5:00 AM 56 °F - 54 °F 92% 30.11 in 4 mi 2.2 mph - -  
5:25 AM 55.4 °F - 55.4 °F 100% 30.09 in 3.7 mi NNE 3.5 mph - N/A   Unknown
6:09 AM 55.4 °F - 53.6 °F 94% 30.09 in - NNE 3.5 mph - N/A   Unknown
6:25 AM 57.2 °F - 55.4 °F 94% 30.09 in 3.1 mi Variable 2.3 mph - N/A   Unknown
7:25 AM 60.8 °F - 59.0 °F 94% 30.09 in 3.1 mi Variable 2.3 mph - N/A   Unknown
8:00 AM 63 °F - 59 °F 83% 30.11 in 4 mi 2.2 mph - -  
8:25 AM 64.4 °F - 59.0 °F 83% 30.09 in 6.2 mi East 5.8 mph - N/A   Unknown
9:25 AM 68.0 °F - 60.8 °F 78% 30.09 in 6.2 mi ENE 4.6 mph - N/A   Unknown
10:25 AM 73.4 °F - 62.6 °F 69% 30.09 in 6.2 mi ENE 4.6 mph - N/A   Unknown
11:00 AM 75 °F - 64 °F 61% 30.10 in 11 mi 4.5 mph - -  
11:25 AM 77.0 °F - 64.4 °F 65% 30.09 in 6.2 mi NNE 3.5 mph - N/A   Unknown
12:25 PM 80.6 °F 82.3 °F 64.4 °F 58% 30.09 in 6.2 mi NNE 4.6 mph - N/A   Unknown
1:25 PM 82.4 °F 83.4 °F 62.6 °F 51% 30.06 in 6.2 mi NE 3.5 mph - N/A   Unknown
2:00 PM 84 °F - 59 °F 32% 30.08 in 19 mi East 4.5 mph - -  
2:25 PM 84.2 °F 84.4 °F 60.8 °F 45% 30.06 in 6.2 mi East 5.8 mph - N/A   Unknown
3:25 PM 84.2 °F 84.4 °F 60.8 °F 45% 30.06 in 6.2 mi NNE 5.8 mph - N/A   Unknown
4:25 PM 86.0 °F 85.4 °F 59.0 °F 40% 30.06 in 6.2 mi ENE 3.5 mph - N/A   Unknown
5:00 PM 88 °F - 61 °F 31% 30.05 in 13 mi 2.2 mph - -  
5:25 PM 87.8 °F 87.6 °F 60.8 °F 40% 30.04 in 6.2 mi Variable 2.3 mph - N/A   Unknown
6:25 PM 86.0 °F 86.1 °F 60.8 °F 43% 30.04 in 6.2 mi ENE 5.8 mph - N/A   Partly Cloudy
7:25 PM 84.2 °F 85.0 °F 62.6 °F 48% 30.04 in 6.2 mi NNE 5.8 mph - N/A   Unknown
8:00 PM 83 °F - 64 °F 42% 30.04 in 19 mi North 4.5 mph - -  
8:25 PM 80.6 °F 82.3 °F 64.4 °F 58% 30.04 in 6.2 mi North 4.6 mph - N/A   Unknown
9:25 PM 77.0 °F - 64.4 °F 65% 30.04 in 6.2 mi NNE 4.6 mph - N/A   Unknown
10:25 PM 73.4 °F - 62.6 °F 69% 30.04 in 6.2 mi Variable 2.3 mph - N/A   Unknown
11:00 PM 72 °F - 62 °F 62% 30.06 in 18 mi 2.2 mph - -  
11:25 PM 71.6 °F - 62.6 °F 73% 30.06 in 6.2 mi North 4.6 mph - N/A   Unknown